QTR122 OBBI-OTHH

Flight info

Callsign QTR122
Flight time N/A
Altitude 11000
Route BHR DCT ASTAD N318 LUBET DCT HAYYA
Aircraft A20N/M-SDE2E3FGHIRWXY/LB1

Departure

Time 2026-04-28 16:57
Airport Bahrain International Airport (OBBI)

Arrival

Time N/A
Airport Hamad International Airport (OTHH)
Time Latitude Longitude Altitude Speed Heading
2026-04-28 16:44 26.26506 50.63649 16 ft 0 kts 212°
2026-04-28 16:47 26.26507 50.63649 16 ft 0 kts 212°
2026-04-28 16:47 26.26538 50.63672 16 ft 7 kts 216°
2026-04-28 16:48 26.26557 50.63687 17 ft 3 kts 231°
2026-04-28 16:48 26.26563 50.63707 16 ft 3 kts 285°
2026-04-28 16:48 26.26562 50.63712 16 ft 0 kts 302°
2026-04-28 16:50 26.26562 50.63711 16 ft 0 kts 302°
2026-04-28 16:50 26.26563 50.63710 16 ft 0 kts 301°
2026-04-28 16:50 26.26574 50.63686 18 ft 11 kts 299°
2026-04-28 16:51 26.26627 50.63594 17 ft 17 kts 306°
2026-04-28 16:51 26.26696 50.63478 16 ft 19 kts 302°
2026-04-28 16:51 26.26761 50.63349 16 ft 18 kts 291°
2026-04-28 16:51 26.26812 50.63233 16 ft 17 kts 308°
2026-04-28 16:52 26.26891 50.63127 16 ft 19 kts 297°
2026-04-28 16:52 26.26959 50.62996 17 ft 20 kts 303°
2026-04-28 16:52 26.27043 50.62862 17 ft 22 kts 303°
2026-04-28 16:52 26.27099 50.62766 17 ft 23 kts 303°
2026-04-28 16:53 26.27138 50.62696 18 ft 10 kts 300°
2026-04-28 16:53 26.27169 50.62640 18 ft 15 kts 301°
2026-04-28 16:53 26.27203 50.62606 17 ft 6 kts 51°
2026-04-28 16:53 26.27287 50.62655 17 ft 20 kts 341°
2026-04-28 16:54 26.27387 50.62501 17 ft 31 kts 304°
2026-04-28 16:54 26.27430 50.62425 17 ft 0 kts 299°
2026-04-28 16:54 26.27471 50.62354 17 ft 23 kts 302°
2026-04-28 16:55 26.27570 50.62181 18 ft 29 kts 303°
2026-04-28 16:55 26.27654 50.62037 18 ft 21 kts 303°
2026-04-28 16:55 26.27740 50.61996 17 ft 9 kts 54°
2026-04-28 16:55 26.27749 50.62016 17 ft 0 kts 64°
2026-04-28 16:56 26.27751 50.62019 17 ft 3 kts 66°
2026-04-28 16:56 26.27772 50.62138 16 ft 22 kts 92°
2026-04-28 16:56 26.27747 50.62218 19 ft 1 kts 118°
2026-04-28 16:56 26.27722 50.62261 16 ft 30 kts 122°
2026-04-28 16:57 26.27448 50.62731 16 ft 113 kts 123°
2026-04-28 16:57 26.26891 50.63674 103 ft 170 kts 122°
2026-04-28 16:57 26.26140 50.65281 1019 ft 172 kts 99°
2026-04-28 16:57 26.26156 50.66616 1873 ft 180 kts 80°